Pagrindinis puslapis
METAR-TAF:

METAR-TAF

Oro uostai :

White Mountain, Aliaska, Jungtinės Amerikos Valstijos

platuma: 64-41-21N, ilguma: 163-24-46W, Aukštis: 81 m

Dabartinis oras

Ataskaita buvo paskelbta 23 minutes, ne 06:56 UTC
Vėjas 6 kt iš Šiaurės/Šiaurės Vakarų
Temperatūra -23°C
Drėgmė 70%
Slėgis 1016 hPa
Matomumas: 16.1 km
Giedras dangus

METAR: PAWM 280656Z AUTO 33006KT 10SM CLR M23/M27 A3000 RMK AO2 SLP169 T12281272 FZRANO

Laikas: 22:19 (07:19 UTC)


TAF: trūkstamas

Orai ataskaitas ir orų prognozės (METAR, TAF).

turimą stotys yra geltonos ir raudonos taškus žemėlapyje.

Perkelti pele per norėdami pamatyti stoties vardą.

Tada spustelėkite, norėdami matyti oro stebėjimo ir prognozės.

Norėdami pakeisti žemėlapį: spustelėkite ant žalios mygtukų su juodo kryžiaus žemyn,; žalią mygtuką su brūkšneliu, jei norite nutolinti; arba žalių rodyklių gretimoms žemėlapius.


METAR-TAF: